Burlington, WA

7:56 AM PDT on May 28, 2017 (GMT -0700)
Skagit Regional

Weather History for KBVS - November, 2012

Change the Weather History Date:

Saturday, November 10, 2012

  Actual Average Record
Temperature  
Mean Temperature 37 °F -  
Max Temperature 42 °F 53 °F 66 °F (2016)
Min Temperature 32 °F 39 °F 28 °F (1982)
Degree Days  
Heating Degree Days 28    
Moisture  
Dew Point 28 °F    
Average Humidity 77    
Maximum Humidity 100    
Minimum Humidity 46    
Precipitation  
Precipitation 0.00 in - - ()
Sea Level Pressure  
Sea Level Pressure 30.13 in    
Wind  
Wind Speed 2 mph (North)    
Max Wind Speed 10 mph    
Max Gust Speed -    
Visibility 10 miles    
Events      
Averages and records for this station are not official NWS values.
T = Trace of Precipitation, MM = Missing Value Source: NWS Daily Summary

Daily Weather History Graph

Daily Weather History Graph

Search for Another Location

Airport or City:

Trip Planner

Search our weather history database for the weather conditions in past years. The results will help you decide how hot, cold, wet, or windy it might be!

Date:

Astronomy

Nov. 10, 2012 Rise Set
Actual Time 7:10 AM PST 4:35 PM PST
Civil Twilight 6:36 AM PST 5:09 PM PST
Nautical Twilight 5:59 AM PST 5:47 PM PST
Astronomical Twilight 5:22 AM PST 6:24 PM PST
Moon 3:06 AM PST (11/10) 2:39 PM PST (11/10)
Length of Visible Light 10h 32m
Length of Day
9h 25m
Waning Crescent, 13% of the Moon is Illuminated
Nov 10
Waning Crescent
Nov 13
New
Nov 20
First Quarter
Nov 28
Full
Dec 6
Last Quarter

Hourly Weather History & Observations

Time (PST) Temp. Windchill Dew Point Humidity Pressure Visibility Wind Dir Wind Speed Gust Speed Precip Events Conditions
2:15 AM 32.0 °F - 30.2 °F 93% 30.00 in 10.0 mi Calm Calm - 0.00 in   Clear
2:35 AM 32.0 °F - 30.2 °F 93% 30.01 in 10.0 mi Calm Calm - 0.00 in   Clear
2:55 AM 33.8 °F - 30.2 °F 87% 30.01 in 10.0 mi Calm Calm - 0.00 in   Clear
3:15 AM 32.0 °F - 28.4 °F 87% 30.01 in 10.0 mi Calm Calm - 0.00 in   Clear
3:35 AM 32.0 °F - 30.2 °F 93% 30.01 in 10.0 mi Calm Calm - 0.00 in   Clear
4:15 AM 32.0 °F 26.4 °F 28.4 °F 87% 30.02 in 10.0 mi NE 5.8 mph - 0.00 in   Clear
4:35 AM 32.0 °F 28.7 °F 28.4 °F 87% 30.03 in 10.0 mi NNW 3.5 mph - 0.00 in   Clear
4:55 AM 32.0 °F 28.7 °F 28.4 °F 87% 30.03 in 10.0 mi NNW 3.5 mph - 0.00 in   Clear
5:15 AM 32.0 °F - 28.4 °F 87% 30.04 in 10.0 mi Calm Calm - 0.00 in   Partly Cloudy
5:35 AM 32.0 °F - 28.4 °F 87% 30.04 in 10.0 mi Calm Calm - 0.00 in   Mostly Cloudy
6:15 AM 32.0 °F - 28.4 °F 87% 30.05 in 10.0 mi Calm Calm - 0.00 in   Overcast
6:35 AM 32.0 °F 27.5 °F 28.4 °F 87% 30.05 in 10.0 mi NNE 4.6 mph - 0.00 in   Overcast
6:55 AM 32.0 °F 27.5 °F 28.4 °F 87% 30.06 in 10.0 mi NE 4.6 mph - 0.00 in   Overcast
7:15 AM 33.8 °F 29.6 °F 28.4 °F 81% 30.06 in 10.0 mi NE 4.6 mph - 0.00 in   Overcast
7:35 AM 33.8 °F - 26.6 °F 75% 30.07 in 10.0 mi Calm Calm - 0.00 in   Overcast
8:15 AM 33.8 °F - 26.6 °F 75% 30.08 in 10.0 mi Calm Calm - 0.00 in   Mostly Cloudy
8:35 AM 33.8 °F 29.6 °F 28.4 °F 81% 30.09 in 10.0 mi NE 4.6 mph - 0.00 in   Partly Cloudy
9:15 AM 35.6 °F 31.7 °F 26.6 °F 70% 30.09 in 10.0 mi ENE 4.6 mph - 0.00 in   Clear
9:35 AM 35.6 °F 31.7 °F 28.4 °F 75% 30.09 in 10.0 mi ENE 4.6 mph - 0.00 in   Clear
9:55 AM 37.4 °F - 26.6 °F 65% 30.10 in 9.0 mi Calm Calm - 0.00 in   Clear
10:15 AM 37.4 °F - 26.6 °F 65% 30.11 in 9.0 mi Calm Calm - 0.00 in   Clear
10:35 AM 39.2 °F - 28.4 °F 65% 30.11 in 9.0 mi Calm Calm - 0.00 in   Clear
10:55 AM 39.2 °F 37.0 °F 30.2 °F 70% 30.12 in 9.0 mi South 3.5 mph - 0.00 in   Clear
11:15 AM 41.0 °F 37.1 °F 30.2 °F 65% 30.12 in 9.0 mi West 5.8 mph - 0.00 in   Clear
11:35 AM 41.0 °F 38.0 °F 28.4 °F 61% 30.12 in 10.0 mi West 4.6 mph - 0.00 in   Clear
11:55 AM 42.8 °F 40.1 °F 26.6 °F 53% 30.13 in 10.0 mi West 4.6 mph - 0.00 in   Clear
12:35 PM 42.8 °F 37.0 °F 26.6 °F 53% 30.14 in 10.0 mi NW 10.4 mph - 0.00 in   Clear
1:15 PM 42.8 °F 37.5 °F 24.8 °F 49% 30.15 in 10.0 mi WNW 9.2 mph - 0.00 in   Clear
1:35 PM 42.8 °F 38.6 °F 23.0 °F 46% 30.15 in 10.0 mi WNW 6.9 mph - 0.00 in   Clear
1:55 PM 42.8 °F 37.0 °F 24.8 °F 49% 30.15 in 10.0 mi WNW 10.4 mph - 0.00 in   Clear
2:15 PM 42.8 °F 37.5 °F 24.8 °F 49% 30.15 in 10.0 mi NW 9.2 mph - 0.00 in   Clear
2:35 PM 42.8 °F 38.6 °F 24.8 °F 49% 30.15 in 10.0 mi NW 6.9 mph - 0.00 in   Clear
2:55 PM 42.8 °F 40.1 °F 26.6 °F 53% 30.14 in 10.0 mi North 4.6 mph - 0.00 in   Clear
3:15 PM 42.8 °F 41.1 °F 26.6 °F 53% 30.15 in 10.0 mi NNE 3.5 mph - 0.00 in   Clear
3:35 PM 42.8 °F - 28.4 °F 57% 30.15 in 10.0 mi Calm Calm - 0.00 in   Clear
3:55 PM 42.8 °F - 26.6 °F 53% 30.16 in 9.0 mi Calm Calm - 0.00 in   Clear
4:15 PM 39.2 °F - 26.6 °F 61% 30.16 in 10.0 mi Calm Calm - 0.00 in   Clear
4:35 PM 35.6 °F 32.8 °F 32.0 °F 87% 30.16 in 10.0 mi West 3.5 mph - 0.00 in   Clear
4:55 PM 39.2 °F - 24.8 °F 56% 30.17 in 10.0 mi Calm Calm - 0.00 in   Clear
5:35 PM 35.6 °F - 28.4 °F 75% 30.18 in 10.0 mi Calm Calm - 0.00 in   Clear
5:55 PM 33.8 °F - 28.4 °F 81% 30.18 in 10.0 mi Calm Calm - 0.00 in   Clear
6:15 PM 33.8 °F - 28.4 °F 81% 30.19 in 10.0 mi Calm Calm - 0.00 in   Clear
6:35 PM 33.8 °F - 28.4 °F 81% 30.20 in 10.0 mi Calm Calm - 0.00 in   Clear
6:55 PM 32.0 °F - 28.4 °F 87% 30.20 in 10.0 mi Calm Calm - 0.00 in   Clear
7:15 PM 32.0 °F - 28.4 °F 87% 30.20 in 10.0 mi Calm Calm - 0.00 in   Clear
7:35 PM 32.0 °F - 28.4 °F 87% 30.20 in 10.0 mi Calm Calm - 0.00 in   Clear
7:55 PM 32.0 °F - 28.4 °F 87% 30.20 in 10.0 mi Calm Calm - 0.00 in   Clear
8:15 PM 32.0 °F - 28.4 °F 87% 30.20 in 10.0 mi Calm Calm - 0.00 in   Clear
8:35 PM 32.0 °F 28.7 °F 30.2 °F 93% 30.20 in 10.0 mi NNE 3.5 mph - 0.00 in   Clear
8:55 PM 32.0 °F 28.7 °F 30.2 °F 93% 30.21 in 10.0 mi NNE 3.5 mph - 0.00 in   Clear
9:15 PM 32.0 °F - 30.2 °F 93% 30.21 in 10.0 mi Calm Calm - 0.00 in   Clear
9:35 PM 32.0 °F 28.7 °F 30.2 °F 93% 30.22 in 10.0 mi NE 3.5 mph - 0.00 in   Clear
9:55 PM 32.0 °F - 30.2 °F 93% 30.22 in 10.0 mi Calm Calm - 0.00 in   Clear
10:15 PM 32.0 °F - 30.2 °F 93% 30.23 in 10.0 mi Calm Calm - 0.00 in   Clear
10:35 PM 32.0 °F - 30.2 °F 93% 30.23 in 10.0 mi Calm Calm - 0.00 in   Clear
10:55 PM 32.0 °F - 30.2 °F 93% 30.23 in 10.0 mi Calm Calm - 0.00 in   Clear
11:15 PM 32.0 °F 26.4 °F 30.2 °F 93% 30.23 in 10.0 mi NNE 5.8 mph - 0.00 in   Clear
11:35 PM 32.0 °F 25.6 °F 32.0 °F 100% 30.23 in 10.0 mi NE 6.9 mph - 0.00 in   Clear
11:55 PM 32.0 °F 26.4 °F 32.0 °F 100% 30.23 in 10.0 mi NE 5.8 mph - 0.00 in   Clear